Regional Weather Roundup
Issued by NWS

Home | Current Version | Previous Version | Text Only | Print | Product List | Glossary Off
Versions: 1 2 3 4 5 6 7 8 9 10 11 12 13 14 15 16 17 18 19 20 21 22 23 24 25 26 27 28 29 30 31 32 33 34 35 36 37 38 39 40 41 42 43 44 45 46 47 48 49 50

000
ASUS43 KLMK 251602
RWRKY
KENTUCKY REGIONAL WEATHER ROUNDUP
NATIONAL WEATHER SERVICE LOUISVILLE KY
1200 PM EDT FRI JUL 25 2014

NOTE "FAIR" INDICATES FEW OR NO CLOUDS BELOW 12,000 FEET
WITH NO SIGNIFICANT WEATHER AND/OR OBSTRUCTIONS TO VISIBILITY.

KYZ001>023-026-027-061>063-070>075-251700-
WESTERN AND SOUTH CENTRAL KENTUCKY

CITY           SKY/WX    TMP DP  RH WIND       PRES   REMARKS
PADUCAH        SUNNY     79  59  50 CALM      30.08S
HENDERSON      MOSUNNY   75  55  50 NW3       30.10R
OWENSBORO      MOSUNNY   78  55  44 W7        30.10R
HOPKINSVILLE   MOSUNNY   78  56  46 VRB1      30.08S
BOWLING GREEN  MOSUNNY   78  54  43 CALM      30.09F
GLASGOW        SUNNY     76  53  44 E5        30.09F
$$

KYZ024-025-028>034-038-045-046-053-251700-
NORTH CENTRAL KENTUCKY

CITY           SKY/WX    TMP DP  RH WIND       PRES   REMARKS
LOUISVILLE/SDF MOSUNNY   79  54  41 N3        30.09F
LOUISVILLE/LOU SUNNY     77  53  43 NW5       30.10F
FORT KNOX      SUNNY     76  55  48 VRB2      30.09F
$$

KYZ035>037-039>044-047>052-055>060-089>105-251700-
NORTHEAST KENTUCKY

CITY           SKY/WX    TMP DP  RH WIND       PRES   REMARKS
LEXINGTON      MOSUNNY   76  54  46 CALM      30.10F
COVINGTON      MOSUNNY   74  53  48 S3        30.11F
FRANKFORT      PTSUNNY   79  54  41 VRB3      30.09F
$$

KYZ054-064>069-076>088-106>120-251700-
SOUTHEAST KENTUCKY

CITY           SKY/WX    TMP DP  RH WIND       PRES   REMARKS
JACKSON        PTSUNNY   69  61  75 CALM      30.12F
LONDON         CLOUDY    68  59  73 VRB5      30.13R
SOMERSET       NOT AVBL
MIDDLESBORO    MOSUNNY   71  63  75 E3        30.11S
MONTICELLO     PTSUNNY   69  63  81 E5        30.13S
$$



USA.gov is the U.S. government's official web portal to all federal, state and local government web resources and services.